Time,TemperatureF,DewpointF,PressureIn,WindDirection,WindDirectionDegrees,WindSpeedMPH,WindSpeedGustMPH,Humidity,HourlyPrecipIn,Conditions,Clouds,dailyrainin,SoftwareType,DateUTC
2013-01-03 00:01:00,68.7,58.1,30.05,SSE,158,8.1,8.1,69,0.00,CLR,,0.00,WeatherDisplay:10.37,2013-01-02 13:01:00,
2013-01-03 00:06:00,68.7,58.1,30.04,SSW,202,6.3,6.3,69,0.00,CLR,,0.00,WeatherDisplay:10.37,2013-01-02 13:06:00,
2013-01-03 00:12:00,68.7,58.1,30.05,SSE,158,8.1,8.1,69,0.00,CLR,,0.00,WeatherDisplay:10.37,2013-01-02 13:12:00,
2013-01-03 00:17:00,68.7,58.1,30.05,South,180,13.0,13.0,69,0.00,CLR,,0.00,WeatherDisplay:10.37,2013-01-02 13:17:00,
2013-01-03 00:22:00,68.7,58.1,30.05,SSE,158,9.4,9.4,69,0.00,CLR,,0.00,WeatherDisplay:10.37,2013-01-02 13:22:00,
2013-01-03 00:27:00,68.7,58.1,30.04,SSW,202,5.8,5.8,69,0.00,CLR,,0.00,WeatherDisplay:10.37,2013-01-02 13:27:00,
2013-01-03 00:33:00,68.7,58.1,30.04,SE,135,8.1,8.1,69,0.00,CLR,,0.00,WeatherDisplay:10.37,2013-01-02 13:33:00,
2013-01-03 00:38:00,68.7,58.1,30.04,SE,135,8.9,8.9,69,0.00,CLR,,0.00,WeatherDisplay:10.37,2013-01-02 13:38:00,
2013-01-03 00:43:00,68.7,58.1,30.04,South,180,10.4,10.4,69,0.00,CLR,,0.00,WeatherDisplay:10.37,2013-01-02 13:43:00,
2013-01-03 00:48:00,68.7,58.1,30.04,SSE,158,9.2,9.2,69,0.00,CLR,,0.00,WeatherDisplay:10.37,2013-01-02 13:48:00,
2013-01-03 00:53:00,68.7,58.1,30.04,SW,225,6.9,6.9,69,0.00,CLR,,0.00,WeatherDisplay:10.37,2013-01-02 13:53:00,
2013-01-03 00:59:00,68.7,58.1,30.04,South,180,4.5,4.5,69,0.00,CLR,,0.00,WeatherDisplay:10.37,2013-01-02 13:59:00,
2013-01-03 01:04:00,68.7,58.1,30.04,South,180,4.6,4.6,69,0.00,CLR,,0.00,WeatherDisplay:10.37,2013-01-02 14:04:00,
2013-01-03 01:09:00,68.7,58.1,30.04,South,173,3.0,5.0,69,0.00,CLR,,0.00,WeatherDisplay:10.37,2013-01-02 14:09:00,
2013-01-03 01:14:00,68.7,58.5,30.04,South,171,9.0,16.0,70,0.00,CLR,,0.00,WeatherDisplay:10.37,2013-01-02 14:14:00,
2013-01-03 01:19:00,68.7,58.1,30.04,SSE,159,5.0,16.0,69,0.00,CLR,,0.00,WeatherDisplay:10.37,2013-01-02 14:19:00,
2013-01-03 01:24:00,68.9,58.3,30.03,SSE,153,8.0,13.0,69,0.00,CLR,,0.00,WeatherDisplay:10.37,2013-01-02 14:24:00,
2013-01-03 01:29:00,68.7,58.1,30.04,SSE,156,8.0,12.0,69,0.00,CLR,,0.00,WeatherDisplay:10.37,2013-01-02 14:29:00,
2013-01-03 01:35:00,68.7,58.5,30.04,ESE,112,11.5,11.5,70,0.00,CLR,,0.00,WeatherDisplay:10.37,2013-01-02 14:35:00,
2013-01-03 01:40:00,68.7,58.5,30.04,South,180,11.8,11.8,70,0.00,CLR,,0.00,WeatherDisplay:10.37,2013-01-02 14:40:00,
2013-01-03 01:45:00,68.7,58.5,30.04,SE,135,11.5,11.5,70,0.00,CLR,,0.00,WeatherDisplay:10.37,2013-01-02 14:45:00,
2013-01-03 01:50:00,68.5,58.4,30.04,SSE,158,12.7,12.7,70,0.00,CLR,,0.00,WeatherDisplay:10.37,2013-01-02 14:50:00,
2013-01-03 01:55:00,68.5,58.8,30.04,SSW,202,9.8,9.8,71,0.00,CLR,,0.00,WeatherDisplay:10.37,2013-01-02 14:55:00,
2013-01-03 02:01:00,68.5,58.8,30.03,SE,135,4.6,4.6,71,0.00,CLR,,0.00,WeatherDisplay:10.37,2013-01-02 15:01:00,
2013-01-03 02:06:00,68.5,58.8,30.03,SE,135,10.4,10.4,71,0.00,CLR,,0.00,WeatherDisplay:10.37,2013-01-02 15:06:00,
2013-01-03 02:11:00,68.5,58.4,30.03,SSW,202,9.6,9.6,70,0.00,CLR,,0.00,WeatherDisplay:10.37,2013-01-02 15:11:00,
2013-01-03 02:16:00,68.5,58.4,30.03,SE,135,9.2,9.2,70,0.00,CLR,,0.00,WeatherDisplay:10.37,2013-01-02 15:16:00,
2013-01-03 02:21:00,68.5,58.4,30.03,SSW,202,8.1,8.1,70,0.00,CLR,,0.00,WeatherDisplay:10.37,2013-01-02 15:21:00,
2013-01-03 02:27:00,68.4,58.2,30.03,South,180,9.2,9.2,70,0.00,CLR,,0.00,WeatherDisplay:10.37,2013-01-02 15:27:00,
2013-01-03 02:32:00,68.4,58.2,30.03,SSE,158,8.1,8.1,70,0.00,CLR,,0.00,WeatherDisplay:10.37,2013-01-02 15:32:00,
2013-01-03 02:37:00,68.4,58.2,30.02,SSE,158,9.2,9.2,70,0.00,CLR,,0.00,WeatherDisplay:10.37,2013-01-02 15:37:00,
2013-01-03 02:42:00,68.4,57.8,30.02,SSE,158,12.7,12.7,69,0.00,CLR,,0.00,WeatherDisplay:10.37,2013-01-02 15:42:00,
2013-01-03 02:48:00,68.4,57.8,30.02,SE,135,4.6,4.6,69,0.00,CLR,,0.00,WeatherDisplay:10.37,2013-01-02 15:48:00,
2013-01-03 02:53:00,68.4,57.8,30.02,South,180,5.8,5.8,69,0.00,CLR,,0.00,WeatherDisplay:10.37,2013-01-02 15:53:00,
2013-01-03 02:58:00,68.4,57.8,30.02,SSE,158,9.2,9.2,69,0.00,CLR,,0.00,WeatherDisplay:10.37,2013-01-02 15:58:00,
2013-01-03 03:03:00,68.4,57.8,30.03,SSE,158,9.2,9.2,69,0.00,CLR,,0.00,WeatherDisplay:10.37,2013-01-02 16:03:00,
2013-01-03 03:08:00,68.4,57.8,30.03,SSE,158,10.4,10.4,69,0.00,CLR,,0.00,WeatherDisplay:10.37,2013-01-02 16:08:00,
2013-01-03 03:13:00,68.4,57.8,30.03,SSE,158,8.1,8.1,69,0.00,CLR,,0.00,WeatherDisplay:10.37,2013-01-02 16:13:00,
2013-01-03 03:18:00,68.4,57.8,30.03,South,180,10.4,10.4,69,0.00,CLR,,0.00,WeatherDisplay:10.37,2013-01-02 16:18:00,
2013-01-03 03:23:00,68.2,57.6,30.03,South,180,10.9,10.9,69,0.00,CLR,,0.00,WeatherDisplay:10.37,2013-01-02 16:23:00,
2013-01-03 03:29:00,68.2,57.6,30.02,SSW,202,8.9,8.9,69,0.00,CLR,,0.00,WeatherDisplay:10.37,2013-01-02 16:29:00,
2013-01-03 03:34:00,68.2,57.2,30.02,South,180,6.9,6.9,68,0.00,CLR,,0.00,WeatherDisplay:10.37,2013-01-02 16:34:00,
2013-01-03 03:39:00,68.2,57.2,30.02,SSE,162,5.0,12.0,68,0.00,CLR,,0.00,WeatherDisplay:10.37,2013-01-02 16:39:00,
2013-01-03 03:45:00,68.2,57.2,30.02,SSE,158,6.9,6.9,68,0.00,CLR,,0.00,WeatherDisplay:10.37,2013-01-02 16:45:00,
2013-01-03 03:50:00,68.2,57.2,30.02,ESE,112,10.5,10.5,68,0.00,CLR,,0.00,WeatherDisplay:10.37,2013-01-02 16:50:00,
2013-01-03 03:55:00,68.2,57.2,30.02,SSE,158,11.5,11.5,68,0.00,CLR,,0.00,WeatherDisplay:10.37,2013-01-02 16:55:00,
2013-01-03 04:00:00,68.2,56.8,30.02,SSE,158,9.8,9.8,67,0.00,CLR,,0.00,WeatherDisplay:10.37,2013-01-02 17:00:00,
2013-01-03 04:05:00,68.2,56.8,30.03,SSE,158,11.5,11.5,67,0.00,CLR,,0.00,WeatherDisplay:10.37,2013-01-02 17:05:00,
2013-01-03 04:10:00,68.2,56.8,30.02,SSE,158,10.4,10.4,67,0.00,CLR,,0.00,WeatherDisplay:10.37,2013-01-02 17:10:00,
2013-01-03 04:15:00,68.2,56.8,30.03,South,180,9.2,9.2,67,0.00,CLR,,0.00,WeatherDisplay:10.37,2013-01-02 17:15:00,
2013-01-03 04:20:00,68.2,56.8,30.02,SSE,158,7.4,7.4,67,0.00,CLR,,0.00,WeatherDisplay:10.37,2013-01-02 17:20:00,
2013-01-03 04:25:00,68.2,56.8,30.03,SSE,158,10.5,10.5,67,0.00,CLR,,0.00,WeatherDisplay:10.37,2013-01-02 17:25:00,
2013-01-03 04:30:00,68.2,56.8,30.03,SSE,158,9.2,9.2,67,0.00,CLR,,0.00,WeatherDisplay:10.37,2013-01-02 17:30:00,
2013-01-03 04:36:00,68.0,56.6,30.03,SE,135,5.8,5.8,67,0.00,CLR,,0.00,WeatherDisplay:10.37,2013-01-02 17:36:00,
2013-01-03 04:41:00,68.0,56.6,30.03,ESE,112,6.9,6.9,67,0.00,CLR,,0.00,WeatherDisplay:10.37,2013-01-02 17:41:00,
2013-01-03 04:46:00,68.0,56.2,30.03,ESE,112,8.9,8.9,66,0.00,CLR,,0.00,WeatherDisplay:10.37,2013-01-02 17:46:00,
2013-01-03 04:51:00,68.2,56.4,30.03,SSE,158,6.9,6.9,66,0.00,CLR,,0.00,WeatherDisplay:10.37,2013-01-02 17:51:00,
2013-01-03 04:56:00,68.2,56.4,30.03,SSE,158,3.5,3.5,66,0.00,CLR,,0.00,WeatherDisplay:10.37,2013-01-02 17:56:00,
2013-01-03 05:01:00,68.2,56.4,30.03,SE,135,6.9,6.9,66,0.00,CLR,,0.00,WeatherDisplay:10.37,2013-01-02 18:01:00,
2013-01-03 05:06:00,68.2,56.4,30.03,SSW,202,7.4,7.4,66,0.00,CLR,,0.00,WeatherDisplay:10.37,2013-01-02 18:06:00,
2013-01-03 05:12:00,68.2,56.4,30.03,SE,135,4.9,4.9,66,0.00,CLR,,0.00,WeatherDisplay:10.37,2013-01-02 18:12:00,
2013-01-03 05:17:00,68.2,56.4,30.03,SE,135,9.2,9.2,66,0.00,CLR,,0.00,WeatherDisplay:10.37,2013-01-02 18:17:00,
2013-01-03 05:22:00,68.2,56.4,30.03,SSE,158,6.7,6.7,66,0.00,CLR,,0.00,WeatherDisplay:10.37,2013-01-02 18:22:00,
2013-01-03 05:27:00,68.0,56.2,30.04,ESE,112,4.6,4.6,66,0.00,CLR,,0.00,WeatherDisplay:10.37,2013-01-02 18:27:00,
2013-01-03 05:32:00,68.2,56.8,30.04,SE,135,6.9,6.9,67,0.00,CLR,,0.00,WeatherDisplay:10.37,2013-01-02 18:32:00,
2013-01-03 05:38:00,68.2,56.4,30.04,SE,135,5.8,5.8,66,0.00,CLR,,0.00,WeatherDisplay:10.37,2013-01-02 18:38:00,
2013-01-03 05:43:00,68.0,56.2,30.04,SSE,158,3.8,3.8,66,0.00,CLR,,0.00,WeatherDisplay:10.37,2013-01-02 18:43:00,
2013-01-03 05:48:00,68.2,56.4,30.04,SSE,158,3.6,3.6,66,0.00,CLR,,0.00,WeatherDisplay:10.37,2013-01-02 18:48:00,
2013-01-03 05:53:00,68.2,56.4,30.04,SSE,158,8.1,8.1,66,0.00,CLR,,0.00,WeatherDisplay:10.37,2013-01-02 18:53:00,
2013-01-03 05:58:00,68.2,56.4,30.04,SE,135,4.6,4.6,66,0.00,CLR,,0.00,WeatherDisplay:10.37,2013-01-02 18:58:00,
2013-01-03 06:04:00,68.2,56.4,30.04,SE,135,6.9,6.9,66,0.00,CLR,,0.00,WeatherDisplay:10.37,2013-01-02 19:04:00,
2013-01-03 06:09:00,68.2,56.4,30.04,SSE,158,6.9,6.9,66,0.00,CLR,,0.00,WeatherDisplay:10.37,2013-01-02 19:09:00,
2013-01-03 06:14:00,68.2,56.4,30.04,South,180,4.6,4.6,66,0.00,CLR,,0.00,WeatherDisplay:10.37,2013-01-02 19:14:00,
2013-01-03 06:19:00,68.2,56.8,30.04,SE,135,6.9,6.9,67,0.00,CLR,,0.00,WeatherDisplay:10.37,2013-01-02 19:19:00,
2013-01-03 06:24:00,68.2,56.8,30.04,SSW,202,3.5,3.5,67,0.00,CLR,,0.00,WeatherDisplay:10.37,2013-01-02 19:24:00,
2013-01-03 06:29:00,68.2,56.8,30.04,SE,135,8.7,8.7,67,0.00,CLR,,0.00,WeatherDisplay:10.37,2013-01-02 19:29:00,
2013-01-03 06:34:00,68.2,56.4,30.04,SSE,158,4.6,4.6,66,0.00,CLR,,0.00,WeatherDisplay:10.37,2013-01-02 19:34:00,
2013-01-03 06:39:00,68.2,56.4,30.05,SSE,168,2.0,6.0,66,0.00,CLR,,0.00,WeatherDisplay:10.37,2013-01-02 19:39:00,
2013-01-03 06:44:00,68.2,56.4,30.05,SSE,165,5.0,7.0,66,0.00,CLR,,0.00,WeatherDisplay:10.37,2013-01-02 19:44:00,
2013-01-03 06:49:00,68.4,56.6,30.05,SSE,166,5.0,8.0,66,0.00,CLR,,0.00,WeatherDisplay:10.37,2013-01-02 19:49:00,
2013-01-03 06:54:00,68.4,56.6,30.05,SSE,159,3.0,8.0,66,0.00,CLR,,0.00,WeatherDisplay:10.37,2013-01-02 19:54:00,
2013-01-03 06:59:00,68.5,56.3,30.05,SSE,162,2.0,4.0,65,0.00,CLR,,0.00,WeatherDisplay:10.37,2013-01-02 19:59:00,
2013-01-03 07:04:00,68.5,56.7,30.05,SSE,167,2.0,7.0,66,0.00,CLR,,0.00,WeatherDisplay:10.37,2013-01-02 20:04:00,
2013-01-03 07:09:00,68.7,56.9,30.05,SSE,166,3.0,6.0,66,0.00,CLR,,0.00,WeatherDisplay:10.37,2013-01-02 20:09:00,
2013-01-03 07:15:00,68.9,56.6,30.05,South,180,8.1,8.1,65,0.00,CLR,,0.00,WeatherDisplay:10.37,2013-01-02 20:15:00,
2013-01-03 07:20:00,69.1,56.8,30.05,SSE,158,3.8,3.8,65,0.00,CLR,,0.00,WeatherDisplay:10.37,2013-01-02 20:20:00,
2013-01-03 07:25:00,69.3,57.0,30.06,SSE,158,5.8,5.8,65,0.00,CLR,,0.00,WeatherDisplay:10.37,2013-01-02 20:25:00,
2013-01-03 07:30:00,69.4,57.2,30.06,SSE,158,4.6,4.6,65,0.00,CLR,,0.00,WeatherDisplay:10.37,2013-01-02 20:30:00,
2013-01-03 07:35:00,69.6,57.8,30.06,South,180,6.9,6.9,66,0.00,CLR,,0.00,WeatherDisplay:10.37,2013-01-02 20:35:00,
2013-01-03 07:40:00,69.6,57.8,30.05,SE,135,4.6,4.6,66,0.00,CLR,,0.00,WeatherDisplay:10.37,2013-01-02 20:40:00,
2013-01-03 07:46:00,69.8,57.9,30.05,South,180,5.8,5.8,66,0.00,CLR,,0.00,WeatherDisplay:10.37,2013-01-02 20:46:00,
2013-01-03 07:51:00,70.0,58.1,30.05,SSW,202,6.9,6.9,66,0.00,CLR,,0.00,WeatherDisplay:10.37,2013-01-02 20:51:00,
2013-01-03 07:56:00,70.3,58.0,30.05,ESE,112,4.6,4.6,65,0.00,CLR,,0.00,WeatherDisplay:10.37,2013-01-02 20:56:00,
2013-01-03 08:01:00,70.3,58.0,30.05,SW,225,3.5,3.5,65,0.00,CLR,,0.00,WeatherDisplay:10.37,2013-01-02 21:01:00,
2013-01-03 08:06:00,70.9,58.5,30.06,SE,135,8.1,8.1,65,0.00,CLR,,0.00,WeatherDisplay:10.37,2013-01-02 21:06:00,
2013-01-03 08:11:00,71.1,58.7,30.05,SSE,158,5.1,5.1,65,0.00,CLR,,0.00,WeatherDisplay:10.37,2013-01-02 21:11:00,
2013-01-03 08:17:00,71.4,58.6,30.06,SSE,158,4.6,4.6,64,0.00,CLR,,0.00,WeatherDisplay:10.37,2013-01-02 21:17:00,
2013-01-03 08:22:00,71.8,58.9,30.06,SSE,158,4.6,4.6,64,0.00,CLR,,0.00,WeatherDisplay:10.37,2013-01-02 21:22:00,
2013-01-03 08:27:00,72.0,58.7,30.06,ESE,112,6.7,6.7,63,0.00,CLR,,0.00,WeatherDisplay:10.37,2013-01-02 21:27:00,
2013-01-03 08:32:00,72.1,58.8,30.06,SSW,202,8.1,8.1,63,0.00,CLR,,0.00,WeatherDisplay:10.37,2013-01-02 21:32:00,
2013-01-03 08:37:00,72.3,59.0,30.06,SSW,202,3.5,3.5,63,0.00,CLR,,0.00,WeatherDisplay:10.37,2013-01-02 21:37:00,
2013-01-03 08:42:00,72.5,59.2,30.06,SE,135,4.7,4.7,63,0.00,CLR,,0.00,WeatherDisplay:10.37,2013-01-02 21:42:00,
2013-01-03 08:48:00,72.9,59.5,30.06,SE,135,3.5,3.5,63,0.00,CLR,,0.00,WeatherDisplay:10.37,2013-01-02 21:48:00,
2013-01-03 08:53:00,73.2,59.9,30.06,South,180,8.1,8.1,63,0.00,CLR,,0.00,WeatherDisplay:10.37,2013-01-02 21:53:00,
2013-01-03 08:58:00,73.2,59.4,30.06,SE,135,6.9,6.9,62,0.00,CLR,,0.00,WeatherDisplay:10.37,2013-01-02 21:58:00,
2013-01-03 09:03:00,73.2,59.4,30.07,SSE,158,7.2,7.2,62,0.00,CLR,,0.00,WeatherDisplay:10.37,2013-01-02 22:03:00,
2013-01-03 09:08:00,73.2,59.4,30.07,SE,135,6.9,6.9,62,0.00,CLR,,0.00,WeatherDisplay:10.37,2013-01-02 22:08:00,
2013-01-03 09:13:00,73.2,59.4,30.07,SE,135,6.9,6.9,62,0.00,CLR,,0.00,WeatherDisplay:10.37,2013-01-02 22:13:00,
2013-01-03 09:18:00,73.6,59.8,30.07,SSW,202,9.2,9.2,62,0.00,CLR,,0.00,WeatherDisplay:10.37,2013-01-02 22:18:00,
2013-01-03 09:24:00,73.8,59.9,30.07,SE,135,5.8,5.8,62,0.00,CLR,,0.00,WeatherDisplay:10.37,2013-01-02 22:24:00,
2013-01-03 09:29:00,73.9,60.1,30.07,ESE,112,4.2,4.2,62,0.00,CLR,,0.00,WeatherDisplay:10.37,2013-01-02 22:29:00,
2013-01-03 09:34:00,74.5,60.6,30.06,SSW,202,2.5,2.5,62,0.00,CLR,,0.00,WeatherDisplay:10.37,2013-01-02 22:34:00,
2013-01-03 09:39:00,75.0,61.1,30.06,SSE,158,4.6,4.6,62,0.00,CLR,,0.00,WeatherDisplay:10.37,2013-01-02 22:39:00,
2013-01-03 09:44:00,75.6,60.7,30.06,SE,135,5.8,5.8,60,0.00,CLR,,0.00,WeatherDisplay:10.37,2013-01-02 22:44:00,
2013-01-03 09:49:00,75.9,61.0,30.06,South,180,8.1,8.1,60,0.00,CLR,,0.00,WeatherDisplay:10.37,2013-01-02 22:49:00,
2013-01-03 09:54:00,76.1,60.7,30.06,SSE,158,6.9,6.9,59,0.00,CLR,,0.00,WeatherDisplay:10.37,2013-01-02 22:54:00,
2013-01-03 09:59:00,76.3,60.9,30.06,South,176,3.0,8.0,59,0.00,CLR,,0.00,WeatherDisplay:10.37,2013-01-02 22:59:00,
2013-01-03 10:04:00,76.6,61.2,30.06,South,176,5.0,12.0,59,0.00,CLR,,0.00,WeatherDisplay:10.37,2013-01-02 23:04:00,
2013-01-03 10:09:00,76.4,61.0,30.06,South,170,6.0,11.0,59,0.00,CLR,,0.00,WeatherDisplay:10.37,2013-01-02 23:09:00,
2013-01-03 10:14:00,76.1,60.7,30.06,South,179,6.0,10.0,59,0.00,CLR,,0.00,WeatherDisplay:10.37,2013-01-02 23:14:00,
2013-01-03 10:19:00,76.1,60.2,30.06,South,180,7.2,7.2,58,0.00,CLR,,0.00,WeatherDisplay:10.37,2013-01-02 23:19:00,
2013-01-03 10:24:00,76.3,60.9,30.06,SSW,202,5.8,5.8,59,0.00,CLR,,0.00,WeatherDisplay:10.37,2013-01-02 23:24:00,
2013-01-03 10:29:00,76.6,61.2,30.06,SSE,168,2.0,8.0,59,0.00,CLR,,0.00,WeatherDisplay:10.37,2013-01-02 23:29:00,
2013-01-03 10:34:00,77.2,61.7,30.06,SE,142,3.0,5.0,59,0.00,CLR,,0.00,WeatherDisplay:10.37,2013-01-02 23:34:00,
2013-01-03 10:39:00,77.6,61.7,30.05,SSE,158,2.0,7.0,58,0.00,CLR,,0.00,WeatherDisplay:10.37,2013-01-02 23:39:00,
2013-01-03 10:44:00,78.0,62.1,30.05,SSE,148,3.0,5.0,58,0.00,CLR,,0.00,WeatherDisplay:10.37,2013-01-02 23:44:00,
2013-01-03 10:49:00,78.6,62.6,30.06,SE,138,3.0,6.0,58,0.00,CLR,,0.00,WeatherDisplay:10.37,2013-01-02 23:49:00,
2013-01-03 10:54:00,79.3,62.8,30.06,SE,141,3.0,5.0,57,0.00,CLR,,0.00,WeatherDisplay:10.37,2013-01-02 23:54:00,
2013-01-03 10:59:00,79.7,62.6,30.06,SSE,153,3.0,7.0,56,0.00,CLR,,0.00,WeatherDisplay:10.37,2013-01-02 23:59:00,
2013-01-03 11:04:00,80.1,62.4,30.06,SE,136,3.0,10.0,55,0.00,CLR,,0.00,WeatherDisplay:10.37,2013-01-03 00:04:00,
2013-01-03 11:09:00,80.2,62.6,30.06,SE,143,3.0,6.0,55,0.00,CLR,,0.00,WeatherDisplay:10.37,2013-01-03 00:09:00,
2013-01-03 11:14:00,80.2,62.1,30.06,SE,140,6.0,9.0,54,0.00,CLR,,0.00,WeatherDisplay:10.37,2013-01-03 00:14:00,
2013-01-03 11:19:00,80.2,62.1,30.06,SSE,147,3.0,8.0,54,0.00,CLR,,0.00,WeatherDisplay:10.37,2013-01-03 00:19:00,
2013-01-03 11:24:00,80.4,62.2,30.06,SSE,155,5.0,8.0,54,0.00,CLR,,0.00,WeatherDisplay:10.37,2013-01-03 00:24:00,
2013-01-03 11:29:00,80.7,62.5,30.06,SSE,158,6.0,9.0,54,0.00,CLR,,0.00,WeatherDisplay:10.37,2013-01-03 00:29:00,
2013-01-03 11:35:00,80.7,62.0,30.05,SSE,153,3.0,10.0,53,0.00,CLR,,0.00,WeatherDisplay:10.37,2013-01-03 00:35:00,
2013-01-03 11:40:00,80.4,61.7,30.05,SE,135,6.9,6.9,53,0.00,CLR,,0.00,WeatherDisplay:10.37,2013-01-03 00:40:00,
2013-01-03 11:45:00,80.2,62.1,30.05,SSE,158,4.6,4.6,54,0.00,CLR,,0.00,WeatherDisplay:10.37,2013-01-03 00:45:00,
2013-01-03 11:50:00,80.1,61.9,30.05,East,90,9.2,9.2,54,0.00,CLR,,0.00,WeatherDisplay:10.37,2013-01-03 00:50:00,
2013-01-03 11:55:00,79.9,61.7,30.05,SE,135,3.6,3.6,54,0.00,CLR,,0.00,WeatherDisplay:10.37,2013-01-03 00:55:00,
2013-01-03 12:00:00,80.4,62.8,30.04,SSE,158,6.9,6.9,55,0.00,CLR,,0.00,WeatherDisplay:10.37,2013-01-03 01:00:00,
2013-01-03 12:06:00,81.5,63.3,30.04,SE,135,8.1,8.1,54,0.00,CLR,,0.00,WeatherDisplay:10.37,2013-01-03 01:06:00,
2013-01-03 12:11:00,81.7,62.9,30.04,ESE,112,1.1,1.1,53,0.00,CLR,,0.00,WeatherDisplay:10.37,2013-01-03 01:11:00,
2013-01-03 12:16:00,81.9,63.1,30.04,ESE,112,5.1,5.1,53,0.00,CLR,,0.00,WeatherDisplay:10.37,2013-01-03 01:16:00,
2013-01-03 12:21:00,82.0,63.2,30.04,SE,135,8.1,8.1,53,0.00,CLR,,0.00,WeatherDisplay:10.37,2013-01-03 01:21:00,
2013-01-03 12:27:00,82.0,62.7,30.04,East,90,5.8,5.8,52,0.00,CLR,,0.00,WeatherDisplay:10.37,2013-01-03 01:27:00,
2013-01-03 12:32:00,81.7,62.3,30.04,ESE,112,10.5,10.5,52,0.00,CLR,,0.00,WeatherDisplay:10.37,2013-01-03 01:32:00,
2013-01-03 12:37:00,81.1,61.8,30.04,SE,135,6.9,6.9,52,0.00,CLR,,0.00,WeatherDisplay:10.37,2013-01-03 01:37:00,
2013-01-03 12:42:00,81.3,62.6,30.04,SSE,158,8.1,8.1,53,0.00,CLR,,0.00,WeatherDisplay:10.37,2013-01-03 01:42:00,
2013-01-03 12:47:00,81.3,62.6,30.03,SE,135,10.1,10.1,53,0.00,CLR,,0.00,WeatherDisplay:10.37,2013-01-03 01:47:00,
2013-01-03 12:52:00,81.1,62.4,30.03,SSE,158,6.9,6.9,53,0.00,CLR,,0.00,WeatherDisplay:10.37,2013-01-03 01:52:00,
2013-01-03 12:57:00,81.5,62.7,30.03,South,180,8.1,8.1,53,0.00,CLR,,0.00,WeatherDisplay:10.37,2013-01-03 01:57:00,
2013-01-03 13:03:00,82.0,62.7,30.03,ESE,112,13.8,13.8,52,0.00,CLR,,0.00,WeatherDisplay:10.37,2013-01-03 02:03:00,
2013-01-03 13:08:00,81.9,62.0,30.03,ENE,68,6.7,6.7,51,0.00,CLR,,0.00,WeatherDisplay:10.37,2013-01-03 02:08:00,
2013-01-03 13:13:00,81.5,62.2,30.03,East,90,5.8,5.8,52,0.00,CLR,,0.00,WeatherDisplay:10.37,2013-01-03 02:13:00,
2013-01-03 13:18:00,81.7,62.3,30.03,South,180,5.8,5.8,52,0.00,CLR,,0.00,WeatherDisplay:10.37,2013-01-03 02:18:00,
2013-01-03 13:24:00,81.7,61.8,30.03,SE,135,8.1,8.1,51,0.00,CLR,,0.00,WeatherDisplay:10.37,2013-01-03 02:24:00,
2013-01-03 13:29:00,81.1,61.3,30.03,SE,135,13.2,13.2,51,0.00,CLR,,0.00,WeatherDisplay:10.37,2013-01-03 02:29:00,
2013-01-03 13:34:00,80.6,61.3,30.02,SSE,158,10.4,10.4,52,0.00,CLR,,0.00,WeatherDisplay:10.37,2013-01-03 02:34:00,
2013-01-03 13:39:00,80.1,61.4,30.02,ESE,112,5.8,5.8,53,0.00,CLR,,0.00,WeatherDisplay:10.37,2013-01-03 02:39:00,
2013-01-03 13:44:00,79.9,61.2,30.02,SSE,158,10.1,10.1,53,0.00,CLR,,0.00,WeatherDisplay:10.37,2013-01-03 02:44:00,
2013-01-03 13:49:00,79.9,61.2,30.02,ESE,120,6.0,9.0,53,0.00,CLR,,0.00,WeatherDisplay:10.37,2013-01-03 02:49:00,
2013-01-03 13:54:00,79.9,61.7,30.02,SSE,158,10.4,10.4,54,0.00,CLR,,0.00,WeatherDisplay:10.37,2013-01-03 02:54:00,
2013-01-03 13:59:00,79.9,61.7,30.01,SE,135,9.4,9.4,54,0.00,CLR,,0.00,WeatherDisplay:10.37,2013-01-03 02:59:00,
2013-01-03 14:04:00,80.4,62.2,30.01,ENE,68,6.9,6.9,54,0.00,CLR,,0.00,WeatherDisplay:10.37,2013-01-03 03:04:00,
2013-01-03 14:10:00,80.8,62.1,30.01,SE,135,5.4,5.4,53,0.00,CLR,,0.00,WeatherDisplay:10.37,2013-01-03 03:10:00,
2013-01-03 14:15:00,81.5,62.7,30.01,SE,135,9.2,9.2,53,0.00,CLR,,0.00,WeatherDisplay:10.37,2013-01-03 03:15:00,
2013-01-03 14:20:00,82.2,62.8,30.01,SE,135,13.8,13.8,52,0.00,CLR,,0.00,WeatherDisplay:10.37,2013-01-03 03:20:00,
2013-01-03 14:25:00,82.8,63.9,30.01,ESE,112,10.4,10.4,53,0.00,CLR,,0.00,WeatherDisplay:10.37,2013-01-03 03:25:00,
2013-01-03 14:32:00,83.8,63.8,30.01,ESE,112,5.8,5.8,51,0.00,CLR,,0.00,WeatherDisplay:10.37,2013-01-03 03:32:00,
2013-01-03 14:38:00,84.0,62.8,30.01,SE,135,9.2,9.2,49,0.00,CLR,,0.00,WeatherDisplay:10.37,2013-01-03 03:38:00,
2013-01-03 14:43:00,83.5,62.3,30.01,ESE,112,7.4,7.4,49,0.00,CLR,,0.00,WeatherDisplay:10.37,2013-01-03 03:43:00,
2013-01-03 14:48:00,83.3,62.7,30.01,SE,135,8.1,8.1,50,0.00,CLR,,0.00,WeatherDisplay:10.37,2013-01-03 03:48:00,
2013-01-03 14:54:00,83.1,62.0,30.00,SE,135,12.7,12.7,49,0.00,CLR,,0.00,WeatherDisplay:10.37,2013-01-03 03:54:00,
2013-01-03 14:59:00,82.9,62.4,30.00,East,90,5.8,5.8,50,0.00,CLR,,0.00,WeatherDisplay:10.37,2013-01-03 03:59:00,
2013-01-03 15:04:00,83.1,62.6,30.00,ESE,118,7.0,10.0,50,0.00,CLR,,0.00,WeatherDisplay:10.37,2013-01-03 04:04:00,
2013-01-03 15:09:00,83.7,64.2,30.00,ESE,123,13.0,14.0,52,0.00,CLR,,0.00,WeatherDisplay:10.37,2013-01-03 04:09:00,
2013-01-03 15:14:00,85.0,64.3,30.00,SE,127,7.0,14.0,50,0.00,CLR,,0.00,WeatherDisplay:10.37,2013-01-03 04:14:00,
2013-01-03 15:19:00,85.8,63.9,30.00,ESE,116,5.0,11.0,48,0.00,CLR,,0.00,WeatherDisplay:10.37,2013-01-03 04:19:00,
2013-01-03 15:24:00,85.5,62.9,30.00,SSE,158,11.5,11.5,47,0.00,CLR,,0.00,WeatherDisplay:10.37,2013-01-03 04:24:00,
2013-01-03 15:29:00,84.9,62.4,30.00,SE,132,6.0,12.0,47,0.00,CLR,,0.00,WeatherDisplay:10.37,2013-01-03 04:29:00,
2013-01-03 15:34:00,84.4,62.5,30.00,ESE,120,6.0,10.0,48,0.00,CLR,,0.00,WeatherDisplay:10.37,2013-01-03 04:34:00,
2013-01-03 15:39:00,83.7,62.5,30.00,East,90,6.0,9.0,49,0.00,CLR,,0.00,WeatherDisplay:10.37,2013-01-03 04:39:00,
2013-01-03 15:44:00,83.1,61.9,30.00,East,93,7.0,10.0,49,0.00,CLR,,0.00,WeatherDisplay:10.37,2013-01-03 04:44:00,
2013-01-03 15:49:00,82.2,61.2,30.00,ESE,107,5.0,11.0,49,0.00,CLR,,0.00,WeatherDisplay:10.37,2013-01-03 04:49:00,
2013-01-03 15:55:00,82.0,61.6,30.00,East,90,8.1,8.1,50,0.00,CLR,,0.00,WeatherDisplay:10.37,2013-01-03 04:55:00,
2013-01-03 16:02:00,81.7,61.2,29.99,ESE,112,10.4,10.4,50,0.00,CLR,,0.00,WeatherDisplay:10.37,2013-01-03 05:02:00,
2013-01-03 16:03:00,81.7,61.2,29.99,SSE,158,10.4,10.4,50,0.00,CLR,,0.00,WeatherDisplay:10.37,2013-01-03 05:03:00,
2013-01-03 16:04:00,81.7,61.8,30.00,SE,131,7.0,10.0,51,0.00,CLR,,0.00,WeatherDisplay:10.37,2013-01-03 05:04:00,
2013-01-03 16:09:00,82.0,62.7,30.00,SE,127,6.0,13.0,52,0.00,CLR,,0.00,WeatherDisplay:10.37,2013-01-03 05:09:00,
2013-01-03 16:14:00,82.7,62.2,29.99,SE,131,8.0,12.0,50,0.00,CLR,,0.00,WeatherDisplay:10.37,2013-01-03 05:14:00,
2013-01-03 16:19:00,83.8,62.6,29.99,SE,144,9.0,13.0,49,0.00,CLR,,0.00,WeatherDisplay:10.37,2013-01-03 05:19:00,
2013-01-03 16:24:00,84.6,63.3,29.99,SE,133,6.0,12.0,49,0.00,CLR,,0.00,WeatherDisplay:10.37,2013-01-03 05:24:00,
2013-01-03 16:29:00,85.5,63.0,29.99,ESE,119,6.0,13.0,47,0.00,CLR,,0.00,WeatherDisplay:10.37,2013-01-03 05:29:00,
2013-01-03 16:34:00,85.5,62.3,29.99,East,94,2.0,11.0,46,0.00,CLR,,0.00,WeatherDisplay:10.37,2013-01-03 05:34:00,
2013-01-03 16:39:00,85.1,62.0,29.99,East,87,3.0,9.0,46,0.00,CLR,,0.00,WeatherDisplay:10.37,2013-01-03 05:39:00,
2013-01-03 16:44:00,84.9,62.4,29.99,East,84,6.0,8.0,47,0.00,CLR,,0.00,WeatherDisplay:10.37,2013-01-03 05:44:00,
2013-01-03 16:49:00,84.7,61.7,29.99,East,85,5.0,8.0,46,0.00,CLR,,0.00,WeatherDisplay:10.37,2013-01-03 05:49:00,
2013-01-03 16:54:00,84.1,61.7,29.99,East,91,6.0,8.0,47,0.00,CLR,,0.00,WeatherDisplay:10.37,2013-01-03 05:54:00,
2013-01-03 16:59:00,83.5,61.1,29.99,ESE,102,6.0,9.0,47,0.00,CLR,,0.00,WeatherDisplay:10.37,2013-01-03 05:59:00,
2013-01-03 17:04:00,83.1,61.4,29.99,ESE,107,6.0,11.0,48,0.00,CLR,,0.00,WeatherDisplay:10.37,2013-01-03 06:04:00,
2013-01-03 17:09:00,82.9,61.8,29.99,East,97,5.0,10.0,49,0.00,CLR,,0.00,WeatherDisplay:10.37,2013-01-03 06:09:00,
2013-01-03 17:14:00,82.5,60.9,29.99,ESE,103,7.0,10.0,48,0.00,CLR,,0.00,WeatherDisplay:10.37,2013-01-03 06:14:00,
2013-01-03 17:19:00,82.0,61.0,29.98,ESE,107,6.0,9.0,49,0.00,CLR,,0.00,WeatherDisplay:10.37,2013-01-03 06:19:00,
2013-01-03 17:24:00,81.7,61.2,29.99,ESE,104,9.0,12.0,50,0.00,CLR,,0.00,WeatherDisplay:10.37,2013-01-03 06:24:00,
2013-01-03 17:29:00,81.5,61.1,29.98,East,100,3.0,10.0,50,0.00,CLR,,0.00,WeatherDisplay:10.37,2013-01-03 06:29:00,
2013-01-03 17:34:00,81.1,60.7,29.99,East,86,6.0,10.0,50,0.00,CLR,,0.00,WeatherDisplay:10.37,2013-01-03 06:34:00,
2013-01-03 17:39:00,80.9,61.1,29.98,East,87,3.0,10.0,51,0.00,CLR,,0.00,WeatherDisplay:10.37,2013-01-03 06:39:00,
2013-01-03 17:44:00,80.6,60.8,29.98,SE,135,6.9,6.9,51,0.00,CLR,,0.00,WeatherDisplay:10.37,2013-01-03 06:44:00,
2013-01-03 17:49:00,80.4,61.2,29.98,ESE,110,8.0,12.0,52,0.00,CLR,,0.00,WeatherDisplay:10.37,2013-01-03 06:49:00,
2013-01-03 17:54:00,80.2,61.0,29.99,East,90,8.1,8.1,52,0.00,CLR,,0.00,WeatherDisplay:10.37,2013-01-03 06:54:00,
2013-01-03 18:00:00,79.9,60.7,29.99,East,90,11.5,11.5,52,0.00,CLR,,0.00,WeatherDisplay:10.37,2013-01-03 07:00:00,
2013-01-03 18:05:00,79.5,60.9,29.99,ESE,112,10.5,10.5,53,0.00,CLR,,0.00,WeatherDisplay:10.37,2013-01-03 07:05:00,
2013-01-03 18:10:00,79.0,60.4,29.99,ESE,112,10.4,10.4,53,0.00,CLR,,0.00,WeatherDisplay:10.37,2013-01-03 07:10:00,
2013-01-03 18:15:00,78.6,60.6,29.99,SE,135,9.2,9.2,54,0.00,CLR,,0.00,WeatherDisplay:10.37,2013-01-03 07:15:00,
2013-01-03 18:21:00,78.6,61.1,29.99,ESE,112,10.4,10.4,55,0.00,CLR,,0.00,WeatherDisplay:10.37,2013-01-03 07:21:00,
2013-01-03 18:26:00,78.6,61.1,29.99,ENE,68,10.3,10.3,55,0.00,CLR,,0.00,WeatherDisplay:10.37,2013-01-03 07:26:00,
2013-01-03 18:31:00,78.6,61.1,29.99,SE,135,10.7,10.7,55,0.00,CLR,,0.00,WeatherDisplay:10.37,2013-01-03 07:31:00,
2013-01-03 18:36:00,78.4,60.9,29.99,ENE,68,6.9,6.9,55,0.00,CLR,,0.00,WeatherDisplay:10.37,2013-01-03 07:36:00,
2013-01-03 18:41:00,78.6,61.1,29.99,East,90,9.2,9.2,55,0.00,CLR,,0.00,WeatherDisplay:10.37,2013-01-03 07:41:00,
2013-01-03 18:47:00,78.4,60.4,29.99,ESE,112,10.4,10.4,54,0.00,CLR,,0.00,WeatherDisplay:10.37,2013-01-03 07:47:00,
2013-01-03 18:52:00,78.4,60.9,29.99,ESE,112,11.5,11.5,55,0.00,CLR,,0.00,WeatherDisplay:10.37,2013-01-03 07:52:00,
2013-01-03 18:57:00,78.3,60.8,29.99,ESE,112,5.8,5.8,55,0.00,CLR,,0.00,WeatherDisplay:10.37,2013-01-03 07:57:00,
2013-01-03 19:02:00,78.1,60.6,29.99,ESE,112,6.9,6.9,55,0.00,CLR,,0.00,WeatherDisplay:10.37,2013-01-03 08:02:00,
2013-01-03 19:07:00,77.7,60.3,30.00,ENE,68,5.8,5.8,55,0.00,CLR,,0.00,WeatherDisplay:10.37,2013-01-03 08:07:00,
2013-01-03 19:12:00,77.7,60.3,30.00,ENE,68,9.2,9.2,55,0.00,CLR,,0.00,WeatherDisplay:10.37,2013-01-03 08:12:00,
2013-01-03 19:17:00,77.5,60.1,30.00,SE,135,4.6,4.6,55,0.00,CLR,,0.00,WeatherDisplay:10.37,2013-01-03 08:17:00,
2013-01-03 19:22:00,77.2,59.8,30.00,NE,45,8.1,8.1,55,0.00,CLR,,0.00,WeatherDisplay:10.37,2013-01-03 08:22:00,
2013-01-03 19:27:00,76.8,59.9,30.00,East,90,5.8,5.8,56,0.00,CLR,,0.00,WeatherDisplay:10.37,2013-01-03 08:27:00,
2013-01-03 19:32:00,76.6,59.8,30.00,ESE,112,8.1,8.1,56,0.00,CLR,,0.00,WeatherDisplay:10.37,2013-01-03 08:32:00,
2013-01-03 19:38:00,76.3,59.4,30.00,East,90,7.6,7.6,56,0.00,CLR,,0.00,WeatherDisplay:10.37,2013-01-03 08:38:00,
2013-01-03 19:43:00,76.1,59.8,30.00,NNE,22,4.9,4.9,57,0.00,CLR,,0.00,WeatherDisplay:10.37,2013-01-03 08:43:00,
2013-01-03 19:48:00,75.9,59.6,30.00,ENE,68,5.8,5.8,57,0.00,CLR,,0.00,WeatherDisplay:10.37,2013-01-03 08:48:00,
2013-01-03 19:53:00,75.7,59.9,30.00,NE,45,6.9,6.9,58,0.00,CLR,,0.00,WeatherDisplay:10.37,2013-01-03 08:53:00,
2013-01-03 19:58:00,75.4,60.1,30.00,ENE,68,4.6,4.6,59,0.00,CLR,,0.00,WeatherDisplay:10.37,2013-01-03 08:58:00,
2013-01-03 20:03:00,75.0,60.2,30.00,ESE,112,3.5,3.5,60,0.00,CLR,,0.00,WeatherDisplay:10.37,2013-01-03 09:03:00,
2013-01-03 20:08:00,75.0,60.7,30.00,ENE,68,11.5,11.5,61,0.00,CLR,,0.00,WeatherDisplay:10.37,2013-01-03 09:08:00,
2013-01-03 20:13:00,74.7,60.8,30.00,NNE,22,5.8,5.8,62,0.00,CLR,,0.00,WeatherDisplay:10.37,2013-01-03 09:13:00,
2013-01-03 20:19:00,74.3,60.9,30.01,East,90,6.9,6.9,63,0.00,CLR,,0.00,WeatherDisplay:10.37,2013-01-03 09:19:00,
2013-01-03 20:24:00,74.1,61.2,30.01,East,90,8.1,8.1,64,0.00,CLR,,0.00,WeatherDisplay:10.37,2013-01-03 09:24:00,
2013-01-03 20:29:00,73.9,61.0,30.01,NE,45,5.8,5.8,64,0.00,CLR,,0.00,WeatherDisplay:10.37,2013-01-03 09:29:00,
2013-01-03 20:34:00,73.6,60.6,30.01,East,90,6.9,6.9,64,0.00,CLR,,0.00,WeatherDisplay:10.37,2013-01-03 09:34:00,
2013-01-03 20:39:00,73.2,60.7,30.01,ENE,71,1.0,5.0,65,0.00,CLR,,0.00,WeatherDisplay:10.37,2013-01-03 09:39:00,
2013-01-03 20:44:00,73.2,60.7,30.01,ENE,71,1.0,5.0,65,0.00,CLR,,0.00,WeatherDisplay:10.37,2013-01-03 09:44:00,
2013-01-03 20:49:00,73.0,60.6,30.01,NE,45,4.0,4.0,65,0.00,CLR,,0.00,WeatherDisplay:10.37,2013-01-03 09:49:00,
2013-01-03 20:55:00,72.9,60.4,30.01,ENE,68,4.6,4.6,65,0.00,CLR,,0.00,WeatherDisplay:10.37,2013-01-03 09:55:00,
2013-01-03 21:00:00,72.7,60.7,30.01,East,90,3.5,3.5,66,0.00,CLR,,0.00,WeatherDisplay:10.37,2013-01-03 10:00:00,
2013-01-03 21:05:00,72.5,60.5,30.01,ENE,68,5.8,5.8,66,0.00,CLR,,0.00,WeatherDisplay:10.37,2013-01-03 10:05:00,
2013-01-03 21:10:00,72.3,60.3,30.02,ENE,68,3.5,3.5,66,0.00,CLR,,0.00,WeatherDisplay:10.37,2013-01-03 10:10:00,
2013-01-03 21:15:00,72.1,60.2,30.01,WNW,292,5.8,5.8,66,0.00,CLR,,0.00,WeatherDisplay:10.37,2013-01-03 10:15:00,
2013-01-03 21:21:00,72.0,60.0,30.02,East,90,8.1,8.1,66,0.00,CLR,,0.00,WeatherDisplay:10.37,2013-01-03 10:21:00,
2013-01-03 21:26:00,71.8,60.2,30.01,East,90,4.5,4.5,67,0.00,CLR,,0.00,WeatherDisplay:10.37,2013-01-03 10:26:00,
2013-01-03 21:31:00,71.8,60.2,30.02,ESE,112,8.5,8.5,67,0.00,CLR,,0.00,WeatherDisplay:10.37,2013-01-03 10:31:00,
2013-01-03 21:36:00,71.8,60.2,30.02,ENE,68,4.6,4.6,67,0.00,CLR,,0.00,WeatherDisplay:10.37,2013-01-03 10:36:00,
2013-01-03 21:42:00,71.4,59.9,30.02,NNE,22,9.2,9.2,67,0.00,CLR,,0.00,WeatherDisplay:10.37,2013-01-03 10:42:00,
2013-01-03 21:47:00,71.2,59.7,30.02,ESE,112,2.3,2.3,67,0.00,CLR,,0.00,WeatherDisplay:10.37,2013-01-03 10:47:00,
2013-01-03 21:52:00,70.9,59.4,30.02,East,90,4.6,4.6,67,0.00,CLR,,0.00,WeatherDisplay:10.37,2013-01-03 10:52:00,
2013-01-03 21:57:00,70.7,59.6,30.02,ESE,112,2.5,2.5,68,0.00,CLR,,0.00,WeatherDisplay:10.37,2013-01-03 10:57:00,
2013-01-03 22:02:00,70.5,59.4,30.02,East,90,3.6,3.6,68,0.00,CLR,,0.00,WeatherDisplay:10.37,2013-01-03 11:02:00,
2013-01-03 22:07:00,70.5,59.9,30.02,NE,45,5.8,5.8,69,0.00,CLR,,0.00,WeatherDisplay:10.37,2013-01-03 11:07:00,
2013-01-03 22:12:00,70.3,59.7,30.02,NE,45,3.5,3.5,69,0.00,CLR,,0.00,WeatherDisplay:10.37,2013-01-03 11:12:00,
2013-01-03 22:17:00,70.3,59.7,30.02,North,0,3.5,3.5,69,0.00,CLR,,0.00,WeatherDisplay:10.37,2013-01-03 11:17:00,
2013-01-03 22:22:00,70.2,59.5,30.03,NE,45,3.5,3.5,69,0.00,CLR,,0.00,WeatherDisplay:10.37,2013-01-03 11:22:00,
2013-01-03 22:27:00,70.0,59.7,30.03,ENE,68,3.5,3.5,70,0.00,CLR,,0.00,WeatherDisplay:10.37,2013-01-03 11:27:00,
2013-01-03 22:33:00,70.0,59.7,30.03,ENE,68,5.8,5.8,70,0.00,CLR,,0.00,WeatherDisplay:10.37,2013-01-03 11:33:00,
2013-01-03 22:38:00,69.8,59.6,30.03,ENE,68,4.6,4.6,70,0.00,CLR,,0.00,WeatherDisplay:10.37,2013-01-03 11:38:00,
2013-01-03 22:43:00,69.6,59.8,30.03,NE,45,2.3,2.3,71,0.00,CLR,,0.00,WeatherDisplay:10.37,2013-01-03 11:43:00,
2013-01-03 22:48:00,69.6,59.8,30.02,ENE,68,1.1,1.1,71,0.00,CLR,,0.00,WeatherDisplay:10.37,2013-01-03 11:48:00,
2013-01-03 22:54:00,69.4,59.2,30.02,NNE,22,2.3,2.3,70,0.00,CLR,,0.00,WeatherDisplay:10.37,2013-01-03 11:54:00,
2013-01-03 22:59:00,69.3,59.5,30.02,North,0,1.8,1.8,71,0.00,CLR,,0.00,WeatherDisplay:10.37,2013-01-03 11:59:00,
2013-01-03 23:04:00,69.1,59.3,30.02,ESE,112,1.1,1.1,71,0.00,CLR,,0.00,WeatherDisplay:10.37,2013-01-03 12:04:00,
2013-01-03 23:09:00,68.9,59.5,30.02,ESE,112,2.3,2.3,72,0.00,CLR,,0.00,WeatherDisplay:10.37,2013-01-03 12:09:00,
2013-01-03 23:14:00,68.9,59.5,30.02,ESE,112,2.3,2.3,72,0.00,CLR,,0.00,WeatherDisplay:10.37,2013-01-03 12:14:00,
2013-01-03 23:19:00,68.7,59.3,30.02,NE,51,1.0,5.0,72,0.00,CLR,,0.00,WeatherDisplay:10.37,2013-01-03 12:19:00,
2013-01-03 23:24:00,68.7,59.7,30.02,ENE,59,2.0,5.0,73,0.00,CLR,,0.00,WeatherDisplay:10.37,2013-01-03 12:24:00,
2013-01-03 23:29:00,68.6,59.6,30.02,ENE,78,0.0,2.0,73,0.00,CLR,,0.00,WeatherDisplay:10.37,2013-01-03 12:29:00,
2013-01-03 23:35:00,68.5,59.5,30.02,ENE,68,0.0,0.0,73,0.00,CLR,,0.00,WeatherDisplay:10.37,2013-01-03 12:35:00,
2013-01-03 23:40:00,68.5,59.5,30.02,ENE,68,0.0,0.0,73,0.00,CLR,,0.00,WeatherDisplay:10.37,2013-01-03 12:40:00,
2013-01-03 23:45:00,68.5,59.5,30.02,ENE,68,1.1,0.0,73,0.00,CLR,,0.00,WeatherDisplay:10.37,2013-01-03 12:45:00,
2013-01-03 23:50:00,68.4,59.4,30.02,ENE,68,0.0,0.0,73,0.00,CLR,,0.00,WeatherDisplay:10.37,2013-01-03 12:50:00,
2013-01-03 23:55:00,68.2,59.2,30.02,ENE,68,1.3,1.3,73,0.00,CLR,,0.00,WeatherDisplay:10.37,2013-01-03 12:55:00,